Location: Mohawk View
(42.7837°N, 73.7885°W)
Time: 07:21:38
(UTC+00:00)

OBJECT-B - Pass Details

Date: 17 June 2021
Orbit: 414 x 423 km, 97.0° (Epoch: 05 June)

Event Time Altitude Azimuth Distance (km) Brightness Sun altitude
Rises 01:15:03 0° 192° (SSW) 2,350 4.3 -6.6°
Reaches altitude 10° 01:17:15 10° 205° (SSW) 1,491 3.4 -6.9°
Maximum altitude 01:19:58 25° 264° (W) 876 2.9 -7.2°
Drops below altitude 10° 01:22:42 10° 323° (NW) 1,500 5.2 -7.6°
Sets 01:24:56 0° 337° (NNW) 2,368 6.0 -7.9°
